Greenwich Weather Center

Moon Phase Calendar



Online Cameras

 


      

Current Conditions in Greenwich
6/15/2021 5:31:36 AM

65°F
Feels Like 65
Mist
Humidity
87%
Pressure
29.71"
Wind
3 mph (NW)
Dew Point
61°F
UV Index
0/10 (Low)
Visibility
2 mi

Hourly Forecast

Date & Time Tue, Jun 15
5:00 AM
Tue, Jun 15
6:00 AM
Tue, Jun 15
7:00 AM
Tue, Jun 15
8:00 AM
Tue, Jun 15
9:00 AM
Tue, Jun 15
10:00 AM
Tue, Jun 15
11:00 AM
Tue, Jun 15
12:00 PM
Tue, Jun 15
1:00 PM
Tue, Jun 15
2:00 PM
Tue, Jun 15
3:00 PM
Tue, Jun 15
4:00 PM
Tue, Jun 15
5:00 PM
Tue, Jun 15
6:00 PM
Tue, Jun 15
7:00 PM
Tue, Jun 15
8:00 PM
Tue, Jun 15
9:00 PM
Tue, Jun 15
10:00 PM
Tue, Jun 15
11:00 PM
Wed, Jun 16
12:00 AM
Wed, Jun 16
1:00 AM
Wed, Jun 16
2:00 AM
Wed, Jun 16
3:00 AM
Wed, Jun 16
4:00 AM
Wed, Jun 16
5:00 AM
Wed, Jun 16
6:00 AM
Wed, Jun 16
7:00 AM
Wed, Jun 16
8:00 AM
Wed, Jun 16
9:00 AM
Wed, Jun 16
10:00 AM
Wed, Jun 16
11:00 AM
Wed, Jun 16
12:00 PM
Wed, Jun 16
1:00 PM
Wed, Jun 16
2:00 PM
Wed, Jun 16
3:00 PM
Wed, Jun 16
4:00 PM
Wed, Jun 16
5:00 PM
Wed, Jun 16
6:00 PM
Wed, Jun 16
7:00 PM
Wed, Jun 16
8:00 PM
Wed, Jun 16
9:00 PM
Wed, Jun 16
10:00 PM
Wed, Jun 16
11:00 PM
Thu, Jun 17
12:00 AM
Thu, Jun 17
1:00 AM
Thu, Jun 17
2:00 AM
Thu, Jun 17
3:00 AM
Thu, Jun 17
4:00 AM
Condition
Clouds

Clouds

Clouds

Rain

Clouds

Rain

Rain

Rain

Rain

Clouds

Clouds

Clouds

Clouds

Clouds

Clouds

Clouds

Clear

Clear

Clear

Clear

Clear

Clear

Clear

Clear

Clear

Clear

Clear

Clear

Clear

Clear

Clear

Clear

Clear

Clear

Clear

Clear

Clear

Clear

Clear

Clear

Clear

Clear

Clear

Clear

Clear

Clear

Clear

Clear
Temperature 65°F65°F65°F65°F67°F69°F72°F74°F76°F78°F78°F75°F76°F76°F73°F69°F67°F64°F62°F61°F60°F59°F59°F59°F58°F58°F60°F63°F67°F70°F72°F73°F75°F76°F76°F76°F76°F74°F72°F69°F66°F64°F63°F61°F60°F58°F57°F56°F
Feels Like 66°F65°F66°F66°F67°F70°F72°F74°F76°F78°F77°F74°F76°F75°F73°F69°F67°F63°F61°F60°F60°F59°F58°F58°F57°F57°F59°F62°F65°F68°F70°F72°F73°F74°F75°F75°F74°F73°F71°F68°F64°F63°F61°F59°F58°F57°F55°F55°F
Cloudiness 92%90%92%94%96%76%67%61%61%59%70%85%81%71%59%49%0%0%0%0%0%0%0%0%0%0%0%1%4%2%1%1%1%1%0%1%2%2%3%3%4%2%1%1%1%1%0%0%
Visibility 6 mi6 mi6 mi6 mi6 mi6 mi6 mi6 mi6 mi6 mi6 mi6 mi6 mi6 mi6 mi6 mi6 mi6 mi6 mi6 mi6 mi6 mi6 mi6 mi6 mi6 mi6 mi6 mi6 mi6 mi6 mi6 mi6 mi6 mi6 mi6 mi6 mi6 mi6 mi6 mi6 mi6 mi6 mi6 mi6 mi6 mi6 mi6 mi
Precipitation 4%2%29%41%6%35%34%46%54%50%11%7%7%5%5%5%0%0%0%0%0%0%0%0%0%0%0%0%0%0%0%0%0%0%0%0%0%0%0%0%0%0%0%0%0%0%0%0%
Humidity 89%87%89%89%85%77%67%63%55%48%48%54%50%50%57%66%71%74%73%74%77%79%78%76%75%73%69%61%52%44%37%33%31%29%29%29%30%32%37%44%48%50%53%55%56%57%58%60%
Dew Point 62°F61°F62°F62°F62°F62°F60°F60°F58°F56°F55°F57°F56°F56°F57°F57°F57°F55°F53°F52°F52°F52°F52°F51°F50°F49°F49°F49°F48°F46°F43°F42°F41°F41°F41°F41°F41°F42°F44°F46°F45°F45°F45°F44°F44°F43°F42°F42°F
Pressure 29.71"29.71"29.71"29.74"29.74"29.77"29.74"29.74"29.74"29.71"29.68"29.71"29.71"29.71"29.71"29.74"29.77"29.77"29.77"29.77"29.77"29.77"29.77"29.77"29.77"29.8"29.8"29.83"29.83"29.83"29.83"29.83"29.83"29.8"29.8"29.8"29.83"29.83"29.85"29.88"29.88"29.91"29.91"29.94"29.94"29.94"29.94"29.94"
Wind Speed 3.6 mph3.8 mph2.9 mph3.1 mph3 mph3 mph4.1 mph4.1 mph3.7 mph2.4 mph5.8 mph11.2 mph10.7 mph11.6 mph13.1 mph12.3 mph12.3 mph13.2 mph11.9 mph9.3 mph8.5 mph9.2 mph8.2 mph8.4 mph8.5 mph7.2 mph7.2 mph7.7 mph7.4 mph8 mph8.4 mph8.1 mph8.1 mph8.5 mph9.4 mph11.1 mph12 mph11.6 mph9.9 mph8 mph7.9 mph10 mph10.9 mph9.4 mph8.1 mph5.8 mph4.6 mph4.2 mph
Wind
Direction
259°
W
298°
WNW
280°
W
276°
W
292°
WNW
279°
W
283°
WNW
282°
WNW
290°
WNW
286°
WNW
312°
NW
317°
NW
309°
NW
305°
NW
310°
NW
309°
NW
305°
NW
306°
NW
309°
NW
320°
NW
333°
NNW
339°
NNW
329°
NNW
315°
NW
315°
NW
318°
NW
325°
NW
325°
NW
325°
NW
315°
NW
314°
NW
311°
NW
307°
NW
298°
WNW
292°
WNW
296°
WNW
298°
WNW
301°
WNW
311°
NW
321°
NW
319°
NW
319°
NW
321°
NW
319°
NW
311°
NW
309°
NW
312°
NW
322°
NW

Daily Forecast

Date High Low Precip. Humidity
Today
Jun 15

Rain
78 °F
62 °F
100%
63%
Wednesday
Jun 16

Clear
76 °F
58 °F
0%
33%
Thursday
Jun 17

Clouds
77 °F
56 °F
0%
31%
Friday
Jun 18

Clouds
82 °F
60 °F
0%
36%
Saturday
Jun 19

Rain
83 °F
68 °F
96%
64%
Sunday
Jun 20

Rain
82 °F
67 °F
86%
47%
Monday
Jun 21

Rain
81 °F
64 °F
41%
50%
Tuesday
Jun 22

Rain
84 °F
67 °F
92%
44%
Wednesday
Jun 23

Clear
79 °F
61 °F
0%
45%
Thursday
Jun 24

Clouds
82 °F
65 °F
0%
42%
Friday
Jun 25

Clouds
85 °F
67 °F
0%
54%
Saturday
Jun 26

Clouds
80 °F
69 °F
0%
56%
Sunday
Jun 27

Rain
85 °F
71 °F
96%
61%
Monday
Jun 28

Rain
93 °F
73 °F
81%
55%
Tuesday
Jun 29

Clouds
94 °F
78 °F
6%
54%
Wednesday
Jun 30

Clouds
89 °F
71 °F
0%
48%

Temperature 8-14 Day Outlook



Precipitation 8-14 Day Outlook




Quick Links
Greenwich News
Greenwich Photos
Greenwich Videos




About Us
Contact Us
Site Map
Search Site
Advertise With Us
   
Greenwich.USCoast.info
THE GREENWICH WEBSITE

Copyright 2021, Coastal Town
Privacy    |    Legal